Location: Kolin
(50.0330°N, 15.2000°E)
Time: 07:44:49
(UTC+01:00)

ISS - Pass Details

Date: 23 November 2019
Orbit: 411 x 421 km, 51.6° (Epoch: 12 December)

Event Time Altitude Azimuth Distance (km) Brightness Sun altitude
Rises 17:38:02 0° 202° (SSW) 2,344 0.6 -14.3°
Reaches altitude 10° 17:40:39 10° 180° (S) 1,488 -0.8 -14.7°
Maximum altitude 17:42:49 16° 139° (SE) 1,168 -1.8 -15.0°
Enters shadow 17:43:05 16° 133° (SE) 1,175 -1.8 -15.1°
